DMSP 5D-2 F13 DEB, 40448

Orbit data source: Space-Track

DMSP 5D-2 F13 DEB, 40448 is space debris in SSO originally from a launch on Fri, 24 Mar 1995 UTC launched from the Air Force Western Test Range (AFWTR). Debris objects in space refer to the collection of defunct objects orbiting the Earth. Examples of debris include non-operational satellites, rocket bodies, and fragments generated from explosions, collisions, or faulty payload assembly.

Loading next visibility...
Identifier
40448, 1995-015BA
Orbit
SSO
Country
Flag of USUS
Related business
Manufacturer
Unknown
Mission
Spacecraft
Bus & Motor
Unknown
Mass
Unknown
Launch date (UTC)
1995-03-24 (31 years ago)
Launch vehicle
Unknown
Launch site
Air Force Western Test Range (AFWTR)
Object type
Payload
Rocket body
Debris
Shape & HBR
Unknown shape, 0.1 m
Radar Cross Section
Small (<0.1 m²)

Expand to show TLE details & history
Last TLE update: 1 day ago

TLE from 1 day ago
0 DMSP 5D-2 F13 DEB
1 40448U 95015BA  25301.81022231  .00005967  00000-0  25862-2 0  9992
2 40448  98.9724 298.2808 0038749 355.4658   4.6164 14.24213628548567
Epoch: 2025-10-28T19:26Z
TLE epoch observation values (Epoch: 2025-10-28T19:26:43.207Z)
Latitude
0.00001°
Longitude
-30.7916°
Altitude
786.277 km
Speed
7.475 km/s
True Right ascension
19h 53m 07s
True Declination
0° 00' 00"
Sunlit
Object was in daylight at epoch
Visualization orbit readout
Latitude
Unknown
Longitude
Unknown
Altitude
Unknown
Speed
Unknown
Apparent Right ascension
Unknown
Apparent Declination
Unknown
Sunlit
N/A
Visualization observer readout
Local Sidereal Time
17:35:03
Azimuth
Unknown
Elevation
Unknown
Doppler factor
Unknown
Orbital elements
Apogee altitude
836.15 km
Perigee altitude
780.457 km
Semi-major axis
7,186.44 km
Eccentricity
0.00387
Inclination
98.9724°
RAAN
298.2808°
Arg. of periapsis
355.4658°
True anomaly
4.65231°
Mean anomaly
4.6164°
Eccentric anomaly
4.63434°
Mean motion
3.56264 °/min
Orbital period
101.05 mins
BSTAR
0.0025862
Loading maneuver chart data...
Computing Atmospheric mass density...

Documentation

Showing up to 5 results
|